| time (UTC) | temp F | wind direction | speed MPH | gust MPH | rain 1hr in | rain 24hr in | rain mn in | humidity % | barometer mb |
| 20260902141541 | 69 | 320 | 0.0 | 0.0 | 0.00 | 0.00 | 0.00 | 85 | 1020.3 |
| 20260902141037 | 69 | 187 | 0.0 | 0.0 | 0.00 | 0.00 | 0.00 | 85 | 1020.1 |
| 20260902140532 | 69 | 243 | 0.0 | 0.0 | 0.00 | 0.00 | 0.00 | 85 | 1020.1 |
| 20260902140028 | 69 | 277 | 0.0 | 0.0 | 0.00 | 0.00 | 0.00 | 84 | 1019.8 |
| 20260902135526 | 69 | 309 | 0.0 | 0.0 | 0.00 | 0.00 | 0.00 | 85 | 1019.9 |
| 20260902135022 | 68 | 212 | 0.0 | 0.0 | 0.00 | 0.00 | 0.00 | 85 | 1020.2 |
| 20260902134517 | 68 | 131 | 0.0 | 0.0 | 0.00 | 0.00 | 0.00 | 87 | 1020.0 |
| 20260902134012 | 68 | 299 | 0.0 | 0.0 | 0.00 | 0.00 | 0.00 | 86 | 1019.8 |
| 20260902133507 | 68 | 248 | 0.0 | 0.0 | 0.00 | 0.00 | 0.00 | 87 | 1019.5 |
| 20260902133007 | 68 | 293 | 0.0 | 0.0 | 0.00 | 0.00 | 0.00 | 88 | 1019.4 |
| 20260902132502 | 68 | 285 | 0.0 | 0.0 | 0.00 | 0.00 | 0.00 | 89 | 1019.3 |
| 20260902131956 | 67 | 300 | 0.0 | 0.0 | 0.00 | 0.00 | 0.00 | 89 | 1019.8 |
| 20260902131453 | 68 | 318 | 0.0 | 0.0 | 0.00 | 0.00 | 0.00 | 89 | 1019.7 |
| 20260902130953 | 67 | 325 | 0.0 | 0.0 | 0.00 | 0.00 | 0.00 | 90 | 1019.7 |
| 20260902130448 | 67 | 171 | 0.0 | 0.0 | 0.00 | 0.00 | 0.00 | 90 | 1019.7 |
| 20260902125943 | 67 | 233 | 0.0 | 0.0 | 0.00 | 0.00 | 0.00 | 90 | 1019.4 |
| 20260902125440 | 67 | 273 | 0.0 | 0.0 | 0.00 | 0.00 | 0.00 | 91 | 1019.5 |
| 20260902124935 | 67 | 335 | 0.0 | 0.0 | 0.00 | 0.00 | 0.00 | 91 | 1019.6 |
| 20260902124431 | 67 | 263 | 0.0 | 0.0 | 0.00 | 0.00 | 0.00 | 91 | 1019.4 |
| 20260902123926 | 67 | 295 | 0.0 | 0.0 | 0.00 | 0.00 | 0.00 | 92 | 1019.4 |
| 20260902123423 | 66 | 268 | 0.0 | 0.0 | 0.00 | 0.00 | 0.00 | 93 | 1019.3 |
| 20260902122920 | 66 | 244 | 0.0 | 0.0 | 0.00 | 0.00 | 0.00 | 93 | 1019.2 |
| 20260902122417 | 66 | 288 | 0.0 | 0.0 | 0.00 | 0.00 | 0.00 | 93 | 1019.1 |
| 20260902121912 | 66 | 259 | 0.0 | 0.0 | 0.00 | 0.00 | 0.00 | 94 | 1019.4 |
| 20260902121407 | 66 | 189 | 0.0 | 0.0 | 0.00 | 0.00 | 0.00 | 95 | 1019.4 |
| 20260902120902 | 66 | 256 | 0.0 | 0.0 | 0.00 | 0.00 | 0.00 | 95 | 1019.2 |
| 20260902120358 | 66 | 326 | 0.0 | 0.0 | 0.00 | 0.00 | 0.00 | 95 | 1019.2 |
| 20260902115858 | 66 | 237 | 0.0 | 0.0 | 0.00 | 0.00 | 0.00 | 96 | 1019.3 |
| 20260902115354 | 66 | 338 | 0.0 | 0.0 | 0.00 | 0.00 | 0.00 | 97 | 1019.2 |
| 20260902114850 | 66 | 234 | 0.0 | 0.0 | 0.00 | 0.00 | 0.00 | 97 | 1019.4 |
| 20260902114345 | 66 | 203 | 0.0 | 0.0 | 0.00 | 0.00 | 0.00 | 97 | 1019.2 |
| 20260902113840 | 66 | 247 | 0.0 | 0.0 | 0.00 | 0.00 | 0.00 | 97 | 1019.3 |
| 20260902113336 | 66 | 273 | 0.0 | 0.0 | 0.00 | 0.00 | 0.00 | 97 | 1019.1 |
| 20260902112835 | 66 | 305 | 0.0 | 0.0 | 0.00 | 0.00 | 0.00 | 98 | 1019.1 |
| 20260902112332 | 66 | 276 | 0.0 | 0.0 | 0.00 | 0.00 | 0.00 | 98 | 1019.1 |
| 20260902111827 | 66 | 283 | 0.0 | 0.0 | 0.00 | 0.00 | 0.00 | 98 | 1019.2 |
| 20260902111324 | 67 | 292 | 0.0 | 0.0 | 0.00 | 0.00 | 0.00 | 98 | 1019.0 |
| 20260902110819 | 67 | 255 | 0.0 | 0.0 | 0.00 | 0.00 | 0.00 | 98 | 1018.7 |
| 20260902110315 | 67 | 278 | 0.0 | 0.0 | 0.00 | 0.00 | 0.00 | 98 | 1019.3 |
| 20260902105814 | 67 | 256 | 0.0 | 0.0 | 0.00 | 0.00 | 0.00 | 97 | 1019.1 |
| 20260902105309 | 67 | 202 | 0.0 | 0.0 | 0.00 | 0.00 | 0.00 | 97 | 1018.9 |
| 20260902104804 | 67 | 214 | 0.0 | 0.0 | 0.00 | 0.00 | 0.00 | 97 | 1018.9 |
| 20260902104301 | 67 | 286 | 0.0 | 0.0 | 0.00 | 0.00 | 0.00 | 98 | 1019.1 |
| 20260902103755 | 67 | 329 | 0.0 | 0.0 | 0.00 | 0.00 | 0.00 | 98 | 1018.9 |
| 20260902103254 | 67 | 284 | 0.0 | 0.0 | 0.00 | 0.00 | 0.00 | 98 | 1018.8 |
| 20260902102750 | 67 | 265 | 0.0 | 0.0 | 0.00 | 0.00 | 0.00 | 98 | 1018.9 |
| 20260902102248 | 66 | 289 | 0.0 | 0.0 | 0.00 | 0.00 | 0.00 | 98 | 1018.8 |
| 20260902101743 | 67 | 274 | 0.0 | 0.0 | 0.00 | 0.00 | 0.00 | 98 | 1018.5 |
| 20260902101238 | 66 | 175 | 0.0 | 0.0 | 0.00 | 0.00 | 0.00 | 98 | 1018.5 |
| 20260902100737 | 67 | 191 | 0.0 | 0.0 | 0.00 | 0.00 | 0.00 | 98 | 1018.6 |
| 20260902100232 | 66 | 253 | 0.0 | 0.0 | 0.00 | 0.00 | 0.00 | 98 | 1018.5 |
| 20260902095732 | 67 | 281 | 0.0 | 0.0 | 0.00 | 0.00 | 0.00 | 98 | 1018.5 |
| 20260902095226 | 67 | 283 | 0.0 | 0.0 | 0.00 | 0.00 | 0.00 | 98 | 1018.2 |
| 20260902094721 | 67 | 270 | 0.0 | 0.0 | 0.00 | 0.00 | 0.00 | 98 | 1018.2 |
| 20260902094217 | 67 | 197 | 0.0 | 0.0 | 0.00 | 0.00 | 0.00 | 98 | 1018.3 |
| 20260902093715 | 67 | 253 | 0.0 | 0.0 | 0.00 | 0.00 | 0.00 | 98 | 1018.3 |
| 20260902093211 | 67 | 204 | 0.0 | 0.0 | 0.00 | 0.00 | 0.00 | 98 | 1018.4 |
| 20260902092706 | 67 | 193 | 0.0 | 0.0 | 0.00 | 0.00 | 0.00 | 98 | 1018.4 |
| 20260902092201 | 67 | 302 | 0.0 | 0.0 | 0.00 | 0.00 | 0.00 | 98 | 1018.3 |
| 20260902091701 | 67 | 315 | 0.0 | 0.0 | 0.00 | 0.00 | 0.00 | 98 | 1018.3 |
| 20260902091158 | 67 | 193 | 0.0 | 0.0 | 0.00 | 0.00 | 0.00 | 99 | 1018.4 |
| 20260902090654 | 67 | 163 | 0.0 | 0.0 | 0.00 | 0.00 | 0.00 | 98 | 1018.1 |
| 20260902090152 | 67 | 245 | 0.0 | 0.0 | 0.00 | 0.00 | 0.00 | 98 | 1018.3 |
| 20260902085647 | 67 | 281 | 0.0 | 0.0 | 0.00 | 0.00 | 0.00 | 98 | 1018.2 |
| 20260902085142 | 67 | 191 | 0.0 | 0.0 | 0.00 | 0.00 | 0.00 | 98 | 1018.0 |
| 20260902084638 | 67 | 151 | 0.0 | 0.0 | 0.00 | 0.00 | 0.00 | 97 | 1018.3 |
| 20260902084134 | 67 | 168 | 0.0 | 0.0 | 0.00 | 0.00 | 0.00 | 96 | 1018.0 |
| 20260902083629 | 67 | 196 | 0.0 | 0.0 | 0.00 | 0.00 | 0.00 | 96 | 1018.1 |
| 20260902083128 | 67 | 145 | 0.0 | 0.0 | 0.00 | 0.00 | 0.00 | 96 | 1018.2 |
| 20260902082624 | 67 | 299 | 0.0 | 0.0 | 0.00 | 0.00 | 0.00 | 95 | 1018.1 |
| 20260902082120 | 67 | 288 | 0.0 | 0.0 | 0.00 | 0.00 | 0.00 | 95 | 1018.3 |
| 20260902081617 | 67 | 211 | 0.0 | 0.0 | 0.00 | 0.00 | 0.00 | 95 | 1017.8 |
| 20260902081116 | 67 | 275 | 0.0 | 0.0 | 0.00 | 0.00 | 0.00 | 95 | 1018.0 |
| 20260902080611 | 67 | 259 | 0.0 | 0.0 | 0.00 | 0.00 | 0.00 | 95 | 1017.9 |
| 20260902080108 | 67 | 286 | 0.0 | 0.0 | 0.00 | 0.00 | 0.00 | 95 | 1018.0 |
| 20260902075608 | 67 | 305 | 0.0 | 0.0 | 0.00 | 0.00 | 0.00 | 95 | 1017.9 |
| 20260902075104 | 67 | 270 | 0.0 | 0.0 | 0.00 | 0.00 | 0.00 | 96 | 1018.0 |
| 20260902074559 | 67 | 260 | 0.0 | 0.0 | 0.00 | 0.00 | 0.00 | 95 | 1017.8 |
| 20260902074054 | 67 | 163 | 0.0 | 0.0 | 0.00 | 0.00 | 0.00 | 96 | 1018.1 |
| 20260902073549 | 67 | 294 | 0.0 | 0.0 | 0.00 | 0.00 | 0.00 | 96 | 1017.7 |
| 20260902073045 | 67 | 327 | 0.0 | 0.0 | 0.00 | 0.00 | 0.00 | 96 | 1017.6 |
| 20260902072541 | 67 | 212 | 0.0 | 0.0 | 0.00 | 0.00 | 0.00 | 96 | 1017.7 |
| 20260902072038 | 67 | 172 | 0.0 | 0.0 | 0.00 | 0.00 | 0.00 | 96 | 1017.3 |
| 20260902071537 | 67 | 161 | 0.0 | 0.0 | 0.00 | 0.00 | 0.00 | 96 | 1017.5 |
| 20260902071034 | 67 | 288 | 0.0 | 0.0 | 0.00 | 0.00 | 0.00 | 96 | 1017.5 |
| 20260902070529 | 67 | 317 | 0.0 | 0.0 | 0.00 | 0.00 | 0.00 | 96 | 1017.6 |
| 20260902070023 | 67 | 125 | 0.0 | 0.0 | 0.00 | 0.00 | 0.00 | 96 | 1017.4 |
| 20260902065517 | 67 | 267 | 0.0 | 0.0 | 0.00 | 0.00 | 0.00 | 96 | 1017.5 |
| 20260902065013 | 67 | 286 | 0.0 | 0.0 | 0.00 | 0.00 | 0.00 | 96 | 1017.4 |
| 20260902064509 | 67 | 232 | 0.0 | 0.0 | 0.00 | 0.00 | 0.00 | 96 | 1017.3 |
| 20260902064004 | 67 | 326 | 0.0 | 0.0 | 0.00 | 0.00 | 0.00 | 96 | 1017.5 |
| 20260902063503 | 67 | 276 | 0.0 | 0.0 | 0.00 | 0.00 | 0.00 | 96 | 1017.6 |
| 20260902062959 | 67 | 158 | 0.0 | 0.0 | 0.00 | 0.00 | 0.00 | 96 | 1017.5 |
| 20260902062457 | 67 | 214 | 0.0 | 0.0 | 0.00 | 0.00 | 0.00 | 96 | 1017.6 |
| 20260902061952 | 67 | 213 | 0.0 | 0.0 | 0.00 | 0.00 | 0.00 | 96 | 1017.7 |
| 20260902061442 | 67 | 333 | 0.0 | 0.0 | 0.00 | 0.00 | 0.00 | 96 | 1017.7 |
| 20260902060938 | 67 | 283 | 0.0 | 0.0 | 0.00 | 0.00 | 0.00 | 97 | 1017.8 |
| 20260902060434 | 67 | 247 | 0.0 | 0.0 | 0.00 | 0.00 | 0.00 | 97 | 1017.7 |
| 20260902055930 | 67 | 322 | 0.0 | 0.0 | 0.00 | 0.00 | 0.00 | 96 | 1017.7 |
| 20260902055426 | 67 | 161 | 0.0 | 0.0 | 0.00 | 0.00 | 0.00 | 97 | 1018.0 |
| 20260902054921 | 67 | 226 | 0.0 | 0.0 | 0.00 | 0.00 | 0.00 | 96 | 1017.9 |
| 20260902054416 | 67 | 286 | 0.0 | 0.0 | 0.00 | 0.00 | 0.00 | 96 | 1017.9 |
| 20260902053911 | 67 | 250 | 0.0 | 0.0 | 0.00 | 0.00 | 0.00 | 96 | 1017.7 |
| 20260902053407 | 67 | 296 | 0.0 | 0.0 | 0.00 | 0.00 | 0.00 | 96 | 1018.0 |
| 20260902052905 | 68 | 272 | 0.0 | 0.0 | 0.00 | 0.00 | 0.00 | 96 | 1018.0 |
| 20260902052401 | 68 | 170 | 0.0 | 0.0 | 0.00 | 0.00 | 0.00 | 96 | 1018.0 |
| 20260902051856 | 68 | 182 | 0.0 | 0.0 | 0.00 | 0.00 | 0.00 | 96 | 1017.9 |
| 20260902051356 | 68 | 169 | 0.0 | 0.0 | 0.00 | 0.00 | 0.00 | 97 | 1018.0 |
| 20260902050850 | 68 | 269 | 0.0 | 0.0 | 0.00 | 0.00 | 0.00 | 97 | 1017.9 |
| 20260902050349 | 68 | 301 | 0.0 | 0.0 | 0.00 | 0.00 | 0.00 | 97 | 1017.9 |
| 20260902045844 | 68 | 285 | 0.0 | 0.0 | 0.00 | 0.00 | 0.00 | 97 | 1017.8 |
| 20260902045340 | 68 | 256 | 0.0 | 0.0 | 0.00 | 0.00 | 0.00 | 98 | 1017.6 |
| 20260902044836 | 68 | 334 | 0.0 | 0.0 | 0.00 | 0.00 | 0.00 | 97 | 1017.5 |
| 20260902044331 | 68 | 233 | 0.0 | 0.0 | 0.00 | 0.00 | 0.00 | 98 | 1017.7 |
| 20260902043827 | 68 | 285 | 0.0 | 0.0 | 0.00 | 0.00 | 0.00 | 98 | 1017.6 |
| 20260902043321 | 68 | 296 | 0.0 | 0.0 | 0.00 | 0.00 | 0.00 | 98 | 1017.6 |
| 20260902042821 | 68 | 234 | 0.0 | 0.0 | 0.00 | 0.00 | 0.00 | 98 | 1017.4 |
| 20260902042316 | 68 | 172 | 0.0 | 0.0 | 0.00 | 0.00 | 0.00 | 98 | 1017.4 |
| 20260902041811 | 68 | 225 | 0.0 | 0.0 | 0.00 | 0.00 | 0.00 | 99 | 1017.4 |
| 20260902041311 | 68 | 290 | 0.0 | 0.0 | 0.00 | 0.00 | 0.00 | 99 | 1017.5 |
| 20260902040809 | 68 | 127 | 0.0 | 0.0 | 0.00 | 0.00 | 0.00 | 99 | 1017.5 |
| 20260902040305 | 68 | 264 | 0.0 | 0.0 | 0.00 | 0.00 | 0.00 | 99 | 1017.5 |
| 20260902035804 | 68 | 293 | 0.0 | 0.0 | 0.00 | 0.00 | 0.00 | 99 | 1017.2 |
| 20260902035300 | 68 | 217 | 0.0 | 0.0 | 0.00 | 0.00 | 0.00 | 99 | 1017.0 |
| 20260902034758 | 67 | 327 | 0.0 | 0.0 | 0.00 | 0.00 | 0.00 | 99 | 1017.0 |
| 20260902034254 | 67 | 297 | 0.0 | 0.0 | 0.00 | 0.00 | 0.00 | 99 | 1016.7 |
| 20260902033752 | 67 | 185 | 0.0 | 0.0 | 0.00 | 0.00 | 0.00 | 99 | 1016.7 |
| 20260902033247 | 67 | 281 | 0.0 | 0.0 | 0.00 | 0.00 | 0.00 | 99 | 1016.5 |
| 20260902032745 | 67 | 287 | 0.0 | 0.0 | 0.00 | 0.00 | 0.00 | 99 | 1016.4 |
| 20260902032241 | 67 | 288 | 0.0 | 0.0 | 0.00 | 0.00 | 0.00 | 99 | 1016.3 |
| 20260902031740 | 67 | 336 | 0.0 | 0.0 | 0.00 | 0.00 | 0.00 | 99 | 1016.4 |
| 20260902031236 | 67 | 283 | 0.0 | 0.0 | 0.00 | 0.00 | 0.00 | 99 | 1016.3 |
| 20260902030731 | 67 | 20 | 0.0 | 0.0 | 0.00 | 0.00 | 0.00 | 99 | 1016.5 |
| 20260902030226 | 67 | 229 | 0.0 | 0.0 | 0.00 | 0.00 | 0.00 | 99 | 1016.6 |
| 20260902025725 | 67 | 275 | 0.0 | 0.0 | 0.00 | 0.29 | 0.29 | 99 | 1016.4 |
| 20260902025220 | 67 | 290 | 0.0 | 0.0 | 0.00 | 0.29 | 0.29 | 99 | 1016.5 |
| 20260902024715 | 67 | 301 | 0.0 | 0.0 | 0.00 | 0.29 | 0.29 | 99 | 1016.6 |
| 20260902024211 | 67 | 269 | 0.0 | 0.0 | 0.00 | 0.29 | 0.29 | 99 | 1016.6 |
| 20260902023706 | 67 | 262 | 0.0 | 0.0 | 0.00 | 0.29 | 0.29 | 99 | 1016.4 |
| 20260902023201 | 67 | 127 | 0.0 | 0.0 | 0.00 | 0.29 | 0.29 | 99 | 1016.5 |
| 20260902022701 | 67 | 251 | 0.0 | 0.0 | 0.00 | 0.29 | 0.29 | 99 | 1016.2 |
| 20260902022156 | 67 | 324 | 0.0 | 0.0 | 0.00 | 0.29 | 0.29 | 99 | 1016.4 |
| 20260902021652 | 67 | 312 | 0.0 | 0.0 | 0.00 | 0.29 | 0.29 | 99 | 1016.2 |
| 20260902021146 | 67 | 254 | 0.0 | 0.0 | 0.00 | 0.29 | 0.29 | 99 | 1015.8 |
| 20260902020642 | 67 | 248 | 0.0 | 0.0 | 0.00 | 0.29 | 0.29 | 99 | 1015.8 |
| 20260902020138 | 67 | 243 | 0.0 | 0.0 | 0.00 | 0.29 | 0.29 | 99 | 1015.8 |
| 20260902015633 | 67 | 248 | 0.0 | 0.0 | 0.00 | 0.29 | 0.29 | 99 | 1015.9 |
| 20260902015130 | 68 | 266 | 0.0 | 0.0 | 0.00 | 0.29 | 0.29 | 99 | 1015.4 |
| 20260902014625 | 68 | 294 | 0.0 | 0.0 | 0.00 | 0.29 | 0.29 | 99 | 1015.5 |
| 20260902014120 | 68 | 245 | 0.0 | 0.0 | 0.00 | 0.29 | 0.29 | 99 | 1015.3 |
| 20260902013620 | 68 | 278 | 0.0 | 0.0 | 0.00 | 0.29 | 0.29 | 99 | 1015.3 |
| 20260902013115 | 68 | 255 | 0.0 | 0.0 | 0.00 | 0.29 | 0.29 | 99 | 1015.2 |
| 20260902012611 | 68 | 241 | 0.0 | 0.0 | 0.00 | 0.29 | 0.29 | 99 | 1015.1 |
| 20260902012106 | 69 | 299 | 0.0 | 0.0 | 0.00 | 0.29 | 0.29 | 99 | 1014.9 |
| 20260902011602 | 69 | 162 | 0.0 | 0.0 | 0.00 | 0.29 | 0.29 | 99 | 1015.0 |
| 20260902011101 | 70 | 258 | 0.0 | 0.0 | 0.00 | 0.29 | 0.29 | 99 | 1014.6 |
| 20260902010601 | 70 | 230 | 0.0 | 0.0 | 0.00 | 0.29 | 0.29 | 99 | 1014.5 |
| 20260902010057 | 70 | 314 | 0.0 | 0.0 | 0.00 | 0.29 | 0.29 | 99 | 1014.4 |
| 20260902005554 | 70 | 180 | 0.0 | 0.0 | 0.00 | 0.29 | 0.29 | 99 | 1014.5 |
| 20260902005051 | 70 | 293 | 0.0 | 0.0 | 0.00 | 0.29 | 0.29 | 99 | 1014.4 |
| 20260902004550 | 71 | 253 | 0.0 | 0.0 | 0.00 | 0.29 | 0.29 | 99 | 1014.6 |
| 20260902004045 | 71 | 176 | 0.0 | 0.0 | 0.00 | 0.29 | 0.29 | 99 | 1014.5 |
| 20260902003541 | 71 | 182 | 0.0 | 0.0 | 0.00 | 0.29 | 0.29 | 99 | 1014.6 |
| 20260902003036 | 71 | 316 | 0.0 | 0.0 | 0.00 | 0.29 | 0.29 | 99 | 1014.3 |
| 20260902002532 | 71 | 206 | 0.0 | 0.0 | 0.00 | 0.29 | 0.29 | 99 | 1014.3 |
| 20260902002026 | 72 | 256 | 0.0 | 0.0 | 0.00 | 0.29 | 0.29 | 99 | 1014.4 |
| 20260902001521 | 72 | 207 | 0.0 | 0.0 | 0.00 | 0.29 | 0.29 | 99 | 1014.6 |
| 20260902001016 | 73 | 282 | 0.0 | 0.0 | 0.00 | 0.29 | 0.29 | 99 | 1014.6 |
| 20260902000511 | 73 | 215 | 0.0 | 0.0 | 0.00 | 0.29 | 0.29 | 99 | 1014.4 |
| 20260902000007 | 73 | 223 | 0.0 | 0.0 | 0.00 | 0.29 | 0.29 | 99 | 1014.3 |
| 20260901235501 | 74 | 302 | 0.0 | 0.0 | 0.00 | 0.29 | 0.29 | 99 | 1014.3 |
| 20260901234956 | 74 | 84 | 0.0 | 0.0 | 0.05 | 0.29 | 0.29 | 99 | 1014.3 |
| 20260901234450 | 74 | 63 | 0.0 | 0.0 | 0.05 | 0.29 | 0.29 | 99 | 1014.3 |
| 20260901233950 | 74 | 31 | 0.0 | 0.0 | 0.00 | 0.28 | 0.28 | 99 | 1014.2 |
| 20260901233445 | 74 | 97 | 0.0 | 0.0 | 0.00 | 0.28 | 0.28 | 99 | 1014.3 |
| 20260901232942 | 74 | 282 | 0.0 | 0.0 | 0.00 | 0.28 | 0.28 | 99 | 1013.9 |
| 20260901232436 | 74 | 272 | 0.0 | 0.0 | 0.07 | 0.28 | 0.28 | 99 | 1013.7 |
| 20260901231931 | 74 | 279 | 0.0 | 0.0 | 0.07 | 0.28 | 0.28 | 99 | 1014.4 |
| 20260901231428 | 74 | 294 | 0.0 | 0.0 | 0.00 | 0.27 | 0.27 | 99 | 1014.0 |
| 20260901230924 | 74 | 20 | 0.0 | 0.0 | 0.05 | 0.27 | 0.27 | 99 | 1014.1 |
| 20260901230423 | 74 | 51 | 0.0 | 0.0 | 0.05 | 0.27 | 0.27 | 99 | 1013.5 |
| 20260901225918 | 74 | 33 | 0.0 | 0.0 | 0.00 | 0.26 | 0.26 | 99 | 1013.8 |
| 20260901225413 | 74 | 232 | 0.0 | 0.0 | 0.00 | 0.26 | 0.26 | 99 | 1013.9 |
| 20260901224908 | 74 | 306 | 0.0 | 0.0 | 0.00 | 0.26 | 0.26 | 99 | 1013.9 |
| 20260901224404 | 74 | 101 | 0.0 | 0.0 | 0.00 | 0.26 | 0.26 | 99 | 1013.9 |
| 20260901223900 | 75 | 73 | 0.0 | 0.0 | 0.00 | 0.26 | 0.26 | 99 | 1014.0 |
| 20260901223355 | 74 | 93 | 0.0 | 0.0 | 0.07 | 0.26 | 0.26 | 99 | 1013.5 |
| 20260901222851 | 74 | 75 | 0.0 | 0.0 | 0.61 | 0.26 | 0.26 | 99 | 1013.4 |
| 20260901222347 | 74 | 29 | 0.0 | 0.0 | 0.97 | 0.25 | 0.25 | 99 | 1013.3 |
| 20260901221843 | 75 | 118 | 0.0 | 0.0 | 0.54 | 0.16 | 0.16 | 99 | 1013.6 |
| 20260901221338 | 76 | 22 | 0.0 | 0.0 | 0.19 | 0.10 | 0.10 | 96 | 1013.5 |
| 20260901220838 | 77 | 278 | 0.0 | 0.0 | 0.00 | 0.07 | 0.07 | 93 | 1013.3 |
| 20260901220337 | 77 | 9 | 0.0 | 0.0 | 0.00 | 0.07 | 0.07 | 91 | 1013.3 |
| 20260901215836 | 78 | 273 | 0.0 | 0.0 | 0.00 | 0.07 | 0.07 | 90 | 1013.3 |
| 20260901215335 | 78 | 347 | 0.0 | 0.0 | 0.00 | 0.07 | 0.07 | 89 | 1013.4 |
| 20260901214834 | 78 | 39 | 0.0 | 0.0 | 0.00 | 0.07 | 0.07 | 89 | 1013.4 |
| 20260901214333 | 78 | 282 | 0.0 | 0.0 | 0.00 | 0.07 | 0.07 | 89 | 1013.2 |
| 20260901213828 | 78 | 331 | 0.0 | 0.0 | 0.00 | 0.07 | 0.07 | 89 | 1013.5 |
| 20260901213328 | 79 | 285 | 0.0 | 0.0 | 0.00 | 0.07 | 0.07 | 88 | 1013.1 |
| 20260901212822 | 79 | 337 | 0.0 | 0.0 | 0.00 | 0.07 | 0.07 | 88 | 1013.4 |
| 20260901212318 | 80 | 264 | 0.0 | 0.0 | 0.00 | 0.07 | 0.07 | 87 | 1013.3 |
| 20260901211814 | 80 | 334 | 0.0 | 0.0 | 0.00 | 0.07 | 0.07 | 86 | 1013.0 |
| 20260901211310 | 81 | 272 | 0.0 | 0.0 | 0.00 | 0.07 | 0.07 | 85 | 1013.5 |
| 20260901210805 | 81 | 357 | 0.0 | 0.0 | 0.00 | 0.07 | 0.07 | 84 | 1013.2 |
| 20260901210301 | 82 | 344 | 0.0 | 0.0 | 0.00 | 0.07 | 0.07 | 84 | 1013.2 |
| 20260901205757 | 82 | 268 | 0.0 | 0.0 | 0.00 | 0.07 | 0.07 | 84 | 1013.3 |
| 20260901205256 | 82 | 338 | 0.0 | 0.0 | 0.00 | 0.07 | 0.07 | 83 | 1013.1 |
| 20260901204752 | 83 | 226 | 0.0 | 0.0 | 0.00 | 0.07 | 0.07 | 82 | 1013.1 |
| 20260901204248 | 82 | 278 | 0.0 | 0.0 | 0.00 | 0.07 | 0.07 | 83 | 1013.1 |
| 20260901203742 | 83 | 208 | 0.0 | 0.0 | 0.00 | 0.07 | 0.07 | 83 | 1013.2 |
| 20260901203237 | 82 | 4 | 0.0 | 0.0 | 0.00 | 0.07 | 0.07 | 83 | 1013.3 |
| 20260901202736 | 83 | 250 | 0.0 | 0.0 | 0.00 | 0.07 | 0.07 | 83 | 1013.2 |
| 20260901202232 | 83 | 226 | 0.0 | 0.0 | 0.00 | 0.07 | 0.07 | 82 | 1013.3 |
| 20260901201727 | 84 | 37 | 0.0 | 0.0 | 0.00 | 0.07 | 0.07 | 80 | 1013.3 |
| 20260901201226 | 83 | 136 | 0.0 | 0.0 | 0.00 | 0.07 | 0.07 | 81 | 1013.3 |
| 20260901200720 | 82 | 87 | 0.0 | 0.0 | 0.00 | 0.07 | 0.07 | 83 | 1013.5 |
| 20260901200216 | 83 | 80 | 0.0 | 0.0 | 0.00 | 0.07 | 0.07 | 82 | 1013.3 |
| 20260901195713 | 84 | 18 | 0.0 | 0.0 | 0.00 | 0.07 | 0.07 | 80 | 1013.2 |
| 20260901195207 | 83 | 324 | 0.0 | 0.0 | 0.00 | 0.07 | 0.07 | 82 | 1013.2 |
| 20260901194704 | 83 | 313 | 0.0 | 0.0 | 0.00 | 0.07 | 0.07 | 81 | 1013.1 |
| 20260901194153 | 82 | 76 | 0.0 | 0.0 | 0.00 | 0.07 | 0.07 | 82 | 1013.2 |
| 20260901193648 | 82 | 118 | 0.0 | 0.0 | 0.00 | 0.07 | 0.07 | 82 | 1013.5 |
| 20260901193142 | 83 | 96 | 0.0 | 0.0 | 0.00 | 0.07 | 0.07 | 80 | 1013.4 |
| 20260901192637 | 84 | 111 | 0.0 | 0.0 | 0.00 | 0.07 | 0.07 | 79 | 1013.4 |
| 20260901192132 | 82 | 132 | 0.0 | 0.0 | 0.00 | 0.07 | 0.07 | 81 | 1013.4 |
| 20260901191628 | 82 | 33 | 0.0 | 0.0 | 0.00 | 0.07 | 0.07 | 81 | 1013.5 |
| 20260901191124 | 82 | 349 | 0.0 | 0.0 | 0.00 | 0.07 | 0.07 | 82 | 1013.7 |
| 20260901190620 | 82 | 317 | 0.0 | 0.0 | 0.00 | 0.07 | 0.07 | 83 | 1013.6 |
| 20260901190119 | 82 | 68 | 0.0 | 0.0 | 0.00 | 0.07 | 0.07 | 84 | 1013.6 |
| 20260901185617 | 81 | 82 | 0.0 | 0.0 | 0.00 | 0.07 | 0.07 | 85 | 1013.5 |
| 20260901185116 | 81 | 56 | 0.0 | 0.0 | 0.00 | 0.07 | 0.07 | 85 | 1013.4 |
| 20260901184613 | 81 | 96 | 0.0 | 0.0 | 0.00 | 0.07 | 0.07 | 85 | 1013.4 |
| 20260901184108 | 80 | 124 | 0.0 | 0.0 | 0.00 | 0.07 | 0.07 | 86 | 1013.6 |
| 20260901183607 | 80 | 106 | 0.0 | 0.0 | 0.00 | 0.07 | 0.07 | 86 | 1013.8 |
| 20260901183103 | 80 | 288 | 0.0 | 0.0 | 0.00 | 0.07 | 0.07 | 86 | 1013.6 |
| 20260901182600 | 80 | 98 | 0.0 | 0.0 | 0.00 | 0.07 | 0.07 | 86 | 1013.5 |
| 20260901182059 | 80 | 97 | 0.0 | 0.0 | 0.00 | 0.07 | 0.07 | 85 | 1013.6 |
| 20260901181558 | 80 | 149 | 0.0 | 0.0 | 0.00 | 0.07 | 0.07 | 86 | 1013.5 |
| 20260901181052 | 80 | 87 | 0.0 | 0.0 | 0.00 | 0.07 | 0.07 | 86 | 1013.5 |
| 20260901180551 | 80 | 115 | 0.0 | 0.0 | 0.00 | 0.07 | 0.07 | 87 | 1013.4 |
| 20260901180046 | 80 | 119 | 0.0 | 0.0 | 0.00 | 0.07 | 0.07 | 87 | 1013.4 |
| 20260901175539 | 79 | 76 | 0.0 | 0.0 | 0.00 | 0.07 | 0.07 | 89 | 1013.2 |
| 20260901175034 | 79 | 157 | 0.0 | 0.0 | 0.00 | 0.07 | 0.07 | 90 | 1013.2 |
| 20260901174530 | 79 | 93 | 0.0 | 0.0 | 0.00 | 0.07 | 0.07 | 90 | 1013.4 |
| 20260901174026 | 79 | 104 | 0.0 | 0.0 | 0.00 | 0.07 | 0.07 | 90 | 1013.1 |
| 20260901173526 | 78 | 119 | 0.0 | 0.0 | 0.00 | 0.07 | 0.07 | 92 | 1013.3 |
| 20260901173022 | 76 | 73 | 0.0 | 0.0 | 0.00 | 0.07 | 0.07 | 94 | 1013.9 |
| 20260901172517 | 76 | 112 | 0.0 | 0.0 | 0.00 | 0.07 | 0.07 | 94 | 1014.5 |
| 20260901172015 | 75 | 73 | 0.0 | 0.0 | 0.00 | 0.07 | 0.07 | 97 | 1014.4 |
| 20260901171514 | 75 | 109 | 0.0 | 0.0 | 0.00 | 0.07 | 0.07 | 97 | 1014.4 |
| 20260901171014 | 75 | 104 | 0.0 | 0.0 | 0.00 | 0.07 | 0.07 | 97 | 1014.2 |
| 20260901170508 | 75 | 171 | 0.0 | 0.0 | 0.00 | 0.07 | 0.07 | 97 | 1014.4 |
| 20260901170009 | 75 | 110 | 0.0 | 0.0 | 0.00 | 0.07 | 0.07 | 97 | 1014.3 |
| 20260901165503 | 75 | 110 | 0.0 | 0.0 | 0.00 | 0.07 | 0.07 | 98 | 1014.2 |
| 20260901164958 | 75 | 96 | 0.0 | 0.0 | 0.00 | 0.07 | 0.07 | 97 | 1014.3 |
| 20260901164454 | 75 | 133 | 0.0 | 0.0 | 0.05 | 0.07 | 0.07 | 98 | 1014.4 |
| 20260901163948 | 75 | 90 | 0.0 | 0.0 | 0.05 | 0.07 | 0.07 | 98 | 1014.2 |
| 20260901163444 | 75 | 93 | 0.0 | 0.0 | 0.00 | 0.06 | 0.06 | 98 | 1014.3 |
| 20260901162942 | 75 | 88 | 0.0 | 0.0 | 0.00 | 0.06 | 0.06 | 98 | 1014.3 |
| 20260901162438 | 75 | 93 | 0.0 | 0.0 | 0.00 | 0.06 | 0.06 | 98 | 1014.6 |
| 20260901161931 | 75 | 78 | 0.0 | 0.0 | 0.00 | 0.06 | 0.06 | 98 | 1014.6 |
| 20260901161431 | 74 | 83 | 0.0 | 0.0 | 0.07 | 0.06 | 0.06 | 98 | 1015.0 |
| 20260901160926 | 74 | 71 | 0.0 | 0.0 | 0.07 | 0.06 | 0.06 | 98 | 1015.1 |
| 20260901160422 | 74 | 34 | 0.0 | 0.0 | 0.00 | 0.05 | 0.05 | 98 | 1015.3 |
| 20260901155921 | 74 | 18 | 0.0 | 0.0 | 0.05 | 0.05 | 0.05 | 98 | 1015.3 |
| 20260901155421 | 74 | 143 | 0.0 | 0.0 | 0.05 | 0.05 | 0.05 | 98 | 1015.5 |
| 20260901154918 | 74 | 98 | 0.0 | 0.0 | 0.00 | 0.04 | 0.04 | 98 | 1015.6 |
| 20260901154417 | 74 | 147 | 0.0 | 0.0 | 0.00 | 0.04 | 0.04 | 98 | 1015.7 |
| 20260901153912 | 74 | 101 | 0.0 | 0.0 | 0.12 | 0.04 | 0.04 | 99 | 1015.9 |
| 20260901153411 | 74 | 176 | 0.0 | 0.0 | 0.19 | 0.04 | 0.04 | 98 | 1015.8 |
| 20260901152906 | 74 | 156 | 0.0 | 0.0 | 0.12 | 0.03 | 0.03 | 96 | 1015.6 |
| 20260901152400 | 75 | 122 | 0.0 | 0.0 | 0.00 | 0.01 | 0.01 | 94 | 1015.5 |
| 20260901151855 | 75 | 131 | 0.0 | 0.0 | 0.00 | 0.01 | 0.01 | 92 | 1015.6 |
| 20260901151350 | 76 | 185 | 0.0 | 0.0 | 0.00 | 0.01 | 0.01 | 92 | 1015.6 |
| 20260901150849 | 76 | 138 | 0.0 | 0.0 | 0.00 | 0.01 | 0.01 | 91 | 1015.6 |
| 20260901150347 | 76 | 197 | 0.0 | 0.0 | 0.00 | 0.01 | 0.01 | 91 | 1015.9 |
| 20260901145844 | 77 | 198 | 0.0 | 0.0 | 0.00 | 0.01 | 0.01 | 90 | 1015.8 |
| 20260901145339 | 76 | 100 | 0.0 | 0.0 | 0.00 | 0.01 | 0.01 | 89 | 1015.7 |
| 20260901144834 | 76 | 100 | 0.0 | 0.0 | 0.00 | 0.01 | 0.01 | 90 | 1015.6 |
| 20260901144329 | 76 | 84 | 0.0 | 0.0 | 0.00 | 0.01 | 0.01 | 90 | 1015.5 |
| 20260901143825 | 76 | 99 | 0.0 | 0.0 | 0.00 | 0.01 | 0.01 | 89 | 1015.5 |
| 20260901143316 | 76 | 128 | 0.0 | 0.0 | 0.00 | 0.01 | 0.01 | 91 | 1015.5 |
| 20260901142812 | 76 | 137 | 0.0 | 0.0 | 0.00 | 0.01 | 0.01 | 91 | 1015.3 |
| 20260901142310 | 76 | 111 | 0.0 | 0.0 | 0.00 | 0.01 | 0.01 | 90 | 1015.6 |
| 20260901141806 | 76 | 109 | 0.0 | 0.0 | 0.00 | 0.01 | 0.01 | 90 | 1015.3 |